Back to catalog

THORAD AGENA D DEB

AlivePO
NORAD 4943·DEBRIS·🇺🇸 United States

Launched Apr 8, 1970 from Vandenberg Space Force Base

Loading…

Next Passes

TLE

Source: Space-Track
1 04943U 70025GD  26224.13829377  .00000019  00000-0  14324-3 0  9997
2 04943  99.6468 183.5097 0229024  44.3241 331.0877 13.10675046689054

Track THORAD AGENA D DEB in real time with AllMySat

Download on the App Store